Regional Weather Roundup
Issued by NWS

Home | Current Version | Previous Version | Graphics & Text | Print | Product List | Glossary On
Versions: 1 2 3 4 5 6 7 8 9 10 11 12 13 14 15 16 17 18 19 20 21 22 23 24 25 26 27 28 29 30 31 32 33 34 35 36 37 38 39 40 41 42 43 44 45 46 47 48 49 50
014
ASUS45 KPSR 250210
RWRAZ

ARIZONA HOURLY REGIONAL WEATHER ROUNDUP
NATIONAL WEATHER SERVICE PHOENIX AZ
700 PM MST MON APR 24 2017

NOTE: FAIR INDICATES FEW OR NO CLOUDS BELOW 12,000 FEET WITH NO
SIGNIFICANT WEATHER AND/OR OBSTRUCTIONS TO VISIBILITY.

AZZ001>003-036-250300-
NORTHWEST ARIZONA

CITY           SKY/WX    TMP DP  RH WIND       PRES   REMARKS
BULLHEAD CITY  CLOUDY    82  34  17 SW16G26   29.55F HAZE
KINGMAN        CLOUDY    71  31  22 SW15      29.69F
$$

AZZ004>008-015-016-018-250300-
NORTH CENTRAL ARIZONA

CITY           SKY/WX    TMP DP  RH WIND       PRES   REMARKS
GRAND CANYON   CLOUDY    57  25  29 SW13G25   29.81R
WILLIAMS       CLOUDY    55  27  33 SW16G23   29.84F
PRESCOTT       MOCLDY    64  30  27 SW14      29.81S
FLAGSTAFF      MOCLDY    55  26  32 SW22G36   29.82S
PAYSON         MOCLDY    64  14  14 SW8       29.84S
PAGE           CLOUDY    71  21  15 W16G26    29.61R
$$

AZZ009>014-017-250300-
NORTHEAST ARIZONA

CITY           SKY/WX    TMP DP  RH WIND       PRES   REMARKS
WINSLOW        MOCLDY    67  19  16 SW16G25   29.75R
SAINT JOHNS    MOCLDY    66  18  15 W24G36    29.76S
WINDOW ROCK    CLOUDY    62  17  17 SW25      29.77S
SHOW LOW       PTCLDY    59  18  20 SW24G32   29.83S
$$

AZZ540-542>544-546-548-250300-
GREATER PHOENIX AREA

CITY           SKY/WX    TMP DP  RH WIND       PRES   REMARKS
PHOENIX        MOCLDY    87  19   8 W13       29.59F
BUCKEYE        MOCLDY    82  25  12 SW15G23   29.61F
GLENDALE       MOCLDY    86  21   9 S10G16    29.62F
LUKE AFB       PTCLDY    84  24  11 SW16      29.59F
DEER VALLEY    PTCLDY    83  18   9 SW17      29.61F
SCOTTSDALE     PTCLDY    84  18   8 W12       29.63F
MESA-FALCON    MOCLDY   N/A N/A N/A SW12      29.63F
MESA-GATEWAY   MOCLDY    84  23  10 W12       29.63F
CHANDLER       CLEAR     86  21   9 SW9       29.61F
$$

AZZ539-553-250300-
SOUTHWEST MARICOPA COUNTY AND PINAL COUNTY

CITY           SKY/WX    TMP DP  RH WIND       PRES   REMARKS
CASA GRANDE    CLOUDY    84  35  17 SW12      29.64F
GILA BEND      MOCLDY    86  35  16 S17       29.59F
$$

AZZ503-504-507>509-250300-
SOUTHEAST ARIZONA

CITY           SKY/WX    TMP DP  RH WIND       PRES   REMARKS
TUCSON         CLOUDY    84  22  10 SW8G20    29.75S
DAVIS-MONTHAN  CLOUDY    82  21  10 W9        29.74S
RYAN FIELD     CLEAR     82  19   9 W9        29.74S
NOGALES        CLOUDY    78  16   9 SW14G24   29.85S
SIERRA VISTA   CLOUDY    74  12   9 W18       29.87S
DOUGLAS        CLOUDY    77  14   9 SW14      29.83F
SAFFORD        MOCLDY    81  17   9 NW21G31   29.68S
$$

AZZ532-250300-
SOUTHWEST ARIZONA

CITY           SKY/WX    TMP DP  RH WIND       PRES   REMARKS
YUMA           MOCLDY    84  45  25 W15       29.61S
$$

CAZ041-043-047-048-061-525>527-560>570-250300-
SOUTHERN CALIFORNIA

CITY           SKY/WX    TMP DP  RH WIND       PRES   REMARKS
DOWNTOWN L.A.  CLEAR     64  51  62 VRB5      29.86S
L.A. AIRPORT   MOCLDY    61  52  72 W23       29.87F
SAN DIEGO      MOCLDY    64  53  67 S9        29.92R
BURBANK        PTCLDY    65  47  52 S8        29.85S
ONTARIO        CLOUDY    64  53  67 SW12      29.85F
RIVERSIDE      MOCLDY    66  53  63 W13       29.85S
PALM SPRINGS   MOCLDY    82  47  29 NW13G32   29.64S
EL CENTRO NAS  MOCLDY    79  42  26 W29G36    29.65S
IMPERIAL       MOCLDY    78  47  33 W16       29.64R
BLYTHE         CLOUDY    84  46  26 SW15      29.58R
NEEDLES        CLOUDY    84  33  16 W14       29.59S
$$

NVZ020-UTZ003-250300-
SOUTHERN NEVADA-UTAH

CITY           SKY/WX    TMP DP  RH WIND       PRES   REMARKS
LAS VEGAS      MOCLDY    80  27  14 SW12      29.57S
SALT LAKE CITY CLOUDY    48  42  80 E5        29.72F
$$

NMZ009-TXZ055-250300-
NEW MEXICO-WEST TEXAS

CITY           SKY/WX    TMP DP  RH WIND       PRES   REMARKS
ALBUQUERQUE    CLOUDY    74  13   9 W16G26    29.69R
EL PASO        MOCLDY    83  14   7 W24G38    29.69S
$$


........................KEY........................
SKY/WX - SKY CONDITION/WEATHER
TMP    - TEMPERATURE IN FAHRENHEIT
DP     - DEW POINT IN FAHRENHEIT
RH     - RELATIVE HUMIDITY IN PERCENT
WIND   - DIRECTION AND SPEED IN MILES PER HOUR (MPH)
VRB    - VARIABLE WIND DIRECTION
PRES   - MEAN SEA LEVEL PRESSURE IN INCHES OF MERCURY
         F - FALLING PRESSURE   R - RISING PRESSURE
         S - STEADY PRESSURE
VSB    - VISIBILITY IN MILES
HX     - HEAT INDEX IN FAHRENHEIT
WCI    - WIND CHILL INDEX IN FAHRENHEIT
TC     - TEMPERATURE IN CELSIUS WHICH IS ALSO KNOWN AS
         TEMPERATURE IN CENTIGRADE
AFB    - AIR FORCE BASE
         LUKE AFB IS LUKE AIR FORCE BASE
         DAVIS-MONTHAN IS DAVIS-MONTHAN AIR FORCE BASE
NAS    - NAVAL AIR STATION
         EL CENTRO NAS IS EL CENTRO NAVAL AIR STATION
N/A    - NOT AVAILABLE





USA.gov is the U.S. government's official web portal to all federal, state and local government web resources and services.